Location: Neuvy Saint Sepulchre
(46.5953°N, 1.8122°E)
Time: 07:31:02
(UTC+01:00)

ISS - Pass Details

Date: 03 December 2023
Orbit: 416 x 417 km, 51.6° (Epoch: 01 December)

Event Time Altitude Azimuth Distance (km) Brightness Sun altitude
Rises 19:50:56 0° 286° (WNW) 2,359 1.1 -27.4°
Reaches altitude 10° 19:53:42 10° 261° (W) 1,491 0.0 -27.9°
Enters shadow 19:55:29 15° 229° (SW) 1,238 -0.8 -28.2°
